Date String (YYYY-MM-DD hh:mm:ss) UTC,Instrument flags,Ambient pressure (hPa),Sample flow (lpm),Bypass flow (lpm),Sample temperature (°C),Ambient temperature (°C),ASC tube jacket temperature (°C),LED temperature (°C),Box temperature (°C),Sample RH (%),Span deviation,Mass concentration (μg/m³),Mass concentration (μg/m³),Mass concentration (μg/m³)
DateTimeUTC,F1_M11,P_M11,Q1_M11,Q2_M11,T1_M11,T2_M11,T3_M11,T4_M11,T5_M11,U1_M11,ZSPAN_M11,X2_M11,X0_M11,X1_M11
2022-05-04 05:00:00,,0822.3,5.01,0.00,25.8,25.0,00.0,34.7,27.6,25.9,0000.0,0006.45,0008.52,0006.19
2022-05-04 05:01:00,,0822.3,5.01,0.00,25.8,25.0,00.0,34.7,27.6,25.9,0000.0,0006.37,0008.38,0006.12
2022-05-04 05:02:00,,0822.2,4.99,0.00,25.8,25.0,00.0,34.7,27.6,25.9,0000.0,0006.31,0008.14,0006.07
2022-05-04 05:03:00,,0822.2,5.01,0.00,25.8,25.0,00.0,34.7,27.6,25.9,0000.0,0006.27,0008.04,0006.04
2022-05-04 05:04:00,,0822.1,4.99,0.00,25.8,25.0,00.0,34.7,27.6,25.9,0000.0,0006.24,0007.99,0006.02
2022-05-04 05:05:00,,0822.0,5.01,0.00,25.8,25.0,00.0,34.7,27.6,25.9,0000.0,0006.19,0007.93,0005.98
2022-05-04 05:06:00,,0821.9,5.00,0.00,25.8,25.0,00.0,34.7,27.6,25.9,0000.0,0006.19,0007.92,0005.98
2022-05-04 05:07:00,,0821.9,5.00,0.00,25.8,24.9,00.0,34.7,27.6,25.9,0000.0,0006.22,0007.97,0005.99
2022-05-04 05:08:00,,0821.9,5.01,0.00,25.8,25.0,00.0,34.7,27.6,25.9,0000.0,0006.22,0007.99,0006.00
2022-05-04 05:09:00,,0821.9,4.99,0.00,25.8,25.0,00.0,34.7,27.6,26.0,0000.0,0006.22,0008.00,0006.01
2022-05-04 05:10:00,,0821.8,5.01,0.00,25.8,25.0,00.0,34.7,27.6,26.0,0000.0,0006.18,0007.96,0005.99
2022-05-04 05:11:00,,0821.8,4.99,0.00,25.8,25.0,00.0,34.7,27.6,26.0,0000.0,0006.18,0007.96,0005.99
2022-05-04 05:12:00,,0821.7,5.01,0.00,25.8,25.0,00.0,34.7,27.6,26.0,0000.0,0006.22,0008.02,0006.02
2022-05-04 05:13:00,,0821.6,5.00,0.00,25.8,25.0,00.0,34.7,27.6,26.0,0000.0,0006.23,0008.06,0006.02
2022-05-04 05:14:00,,0821.5,4.99,0.00,25.8,24.9,00.0,34.7,27.6,26.0,0000.0,0006.24,0008.08,0006.01
2022-05-04 05:15:00,,0821.5,5.00,0.00,25.7,24.9,00.0,34.7,27.6,26.2,0000.0,0006.24,0008.10,0006.00
2022-05-04 05:16:00,,0821.5,4.99,0.00,25.7,24.9,00.0,34.7,27.5,27.1,0000.0,0006.26,0008.12,0006.02
2022-05-04 05:17:00,,0821.5,5.02,0.00,25.7,24.9,00.0,34.7,27.5,26.6,0000.0,0006.25,0008.09,0006.02
2022-05-04 05:18:00,,0821.7,4.98,0.00,25.7,24.9,00.0,34.7,27.5,26.3,0000.0,0006.26,0008.10,0006.01
2022-05-04 05:19:00,,0821.6,5.00,0.00,25.7,24.9,00.0,34.7,27.5,26.2,0000.0,0006.25,0008.10,0006.00
2022-05-04 05:20:00,,0821.7,4.99,0.00,25.7,24.9,00.0,34.7,27.4,26.2,0000.0,0006.22,0008.06,0005.97
2022-05-04 05:21:00,,0821.6,5.00,0.00,25.6,24.8,00.0,34.7,27.4,26.3,0000.0,0006.24,0008.11,0005.97
2022-05-04 05:22:00,,0821.6,5.00,0.00,25.6,24.8,00.0,34.7,27.4,26.3,0000.0,0006.26,0008.20,0005.97
2022-05-04 05:23:00,,0821.5,4.99,0.00,25.6,24.7,00.0,34.6,27.4,26.3,0000.0,0006.23,0008.14,0005.95
2022-05-04 05:24:00,,0821.3,5.00,0.00,25.6,24.7,00.0,34.6,27.3,26.3,0000.0,0006.22,0008.12,0005.95
2022-05-04 05:25:00,,0821.3,5.00,0.00,25.5,24.7,00.0,34.6,27.3,26.4,0000.0,0006.23,0008.19,0005.93
2022-05-04 05:26:00,,0821.3,5.00,0.00,25.5,24.7,00.0,34.6,27.3,26.3,0000.0,0006.26,0008.23,0005.94
2022-05-04 05:27:00,,0821.4,5.00,0.00,25.5,24.7,00.0,34.6,27.3,26.3,0000.0,0006.26,0008.28,0005.94
2022-05-04 05:28:00,,0821.6,5.00,0.00,25.5,24.7,00.0,34.6,27.3,26.4,0000.0,0006.29,0008.41,0005.95
2022-05-04 05:29:00,,0821.8,5.00,0.00,25.5,24.7,00.0,34.6,27.3,26.3,-000.2,0006.31,0008.40,0005.97
2022-05-04 05:30:00,,0822.0,5.01,0.00,25.5,24.7,00.0,34.5,27.3,26.2,0000.0,0006.32,0008.37,0006.00
2022-05-04 05:31:00,,0822.0,4.99,0.00,25.5,24.7,00.0,34.5,27.3,26.2,0000.1,0006.37,0008.46,0006.04
2022-05-04 05:32:00,,0822.1,5.01,0.00,25.5,24.7,00.0,34.5,27.3,26.2,0000.2,0006.40,0008.47,0006.10
2022-05-04 05:33:00,,0822.2,4.99,0.00,25.5,24.7,00.0,34.5,27.3,26.2,-000.0,0006.41,0008.41,0006.13
2022-05-04 05:34:00,,0822.2,5.01,0.00,25.5,24.7,00.0,34.5,27.3,26.2,0000.6,0006.44,0008.48,0006.16
2022-05-04 05:35:00,,0822.1,4.99,0.00,25.5,24.7,00.0,34.5,27.3,26.2,0000.3,0006.47,0008.52,0006.18
2022-05-04 05:36:00,,0822.1,5.01,0.00,25.5,24.7,00.0,34.5,27.3,26.2,0000.6,0006.49,0008.49,0006.23
2022-05-04 05:37:00,,0822.1,4.99,0.00,25.5,24.7,00.0,34.5,27.3,26.1,0000.8,0006.50,0008.51,0006.26
2022-05-04 05:38:00,,0822.1,4.99,0.00,25.5,24.7,00.0,34.5,27.3,26.1,0000.1,0006.53,0008.51,0006.29
2022-05-04 05:39:00,,0822.2,5.00,0.00,25.5,24.7,00.0,34.5,27.3,26.1,0000.2,0006.54,0008.46,0006.30
2022-05-04 05:40:00,,0822.3,4.99,0.00,25.5,24.7,00.0,34.5,27.4,26.1,0000.1,0006.55,0008.50,0006.31
2022-05-04 05:41:00,,0822.4,5.00,0.00,25.5,24.7,00.0,34.5,27.3,26.1,-000.1,0006.57,0008.54,0006.31
2022-05-04 05:42:00,,0822.4,5.01,0.00,25.5,24.7,00.0,34.5,27.3,26.1,-000.3,0006.56,0008.49,0006.30
2022-05-04 05:43:00,,0822.4,4.99,0.00,25.5,24.7,00.0,34.5,27.3,26.1,-000.8,0006.58,0008.55,0006.29
2022-05-04 05:44:00,,0822.5,5.01,0.00,25.5,24.7,00.0,34.5,27.4,26.1,-001.3,0006.57,0008.53,0006.29
2022-05-04 05:45:00,,0822.5,4.99,0.00,25.5,24.7,00.0,34.5,27.3,26.1,-000.8,0006.60,0008.54,0006.31
2022-05-04 05:46:00,,0822.5,5.01,0.00,25.5,24.7,00.0,34.5,27.3,26.0,0000.0,0006.63,0008.55,0006.33
2022-05-04 05:47:00,,0822.6,4.99,0.00,25.5,24.8,00.0,34.5,27.4,26.0,0000.0,0006.66,0008.62,0006.34
2022-05-04 05:48:00,,0822.5,5.00,0.00,25.5,24.8,00.0,34.5,27.4,26.0,0000.0,0006.69,0008.67,0006.35
2022-05-04 05:49:00,,0822.5,4.99,0.00,25.5,24.8,00.0,34.5,27.4,26.0,0000.0,0006.74,0008.75,0006.37
2022-05-04 05:50:00,,0822.5,5.00,0.00,25.5,24.7,00.0,34.5,27.4,26.0,0000.0,0006.73,0008.73,0006.38
2022-05-04 05:51:00,,0822.6,4.99,0.00,25.5,24.8,00.0,34.5,27.4,26.0,0000.0,0006.72,0008.73,0006.37
2022-05-04 05:52:00,,0822.5,5.00,0.00,25.5,24.8,00.0,34.5,27.3,25.9,0000.0,0006.73,0008.78,0006.36
2022-05-04 05:53:00,,0822.5,5.01,0.00,25.5,24.7,00.0,34.5,27.3,26.0,0000.0,0006.72,0008.79,0006.37
2022-05-04 05:54:00,,0822.5,5.00,0.00,25.5,24.7,00.0,34.5,27.4,26.0,0000.0,0006.71,0008.80,0006.36
2022-05-04 05:55:00,,0822.4,5.00,0.00,25.5,24.7,00.0,34.5,27.3,26.0,0000.0,0006.71,0008.82,0006.35
2022-05-04 05:56:00,,0822.4,5.00,0.00,25.5,24.7,00.0,34.5,27.4,26.2,0000.0,0006.69,0008.81,0006.34
2022-05-04 05:57:00,,0822.3,4.99,0.00,25.5,24.7,00.0,34.5,27.4,27.2,0000.0,0006.64,0008.74,0006.32
2022-05-04 05:58:00,,0822.3,5.01,0.00,25.5,24.7,00.0,34.5,27.4,26.5,0000.0,0006.59,0008.66,0006.29
2022-05-04 05:59:00,,0822.3,5.00,0.00,25.5,24.7,00.0,34.5,27.4,26.3,0000.0,0006.54,0008.57,0006.25
